Theta_e
306 306 306 307 307 307 308 307 304 302 301 300 301 300 300 300 301 302 300 301 301 301 301 301 301 300 300 301 304 306 307 307 304 302 303 303 303 304 305 306 305 306 305 305 306 306 306 306 305 304 306 308 304 306 305 304 312 318 318 314 313 318 318 319 319 316 313 314 317 316 311 308 308 309 307 306 308 309 310 309 307 311 320 327 326 323 327 333
306 306 306 306 307 306 307 307 305 303 301 301 301 301 300 300 301 302 301 301 301 301 301 301 301 301 300 301 305 307 308 307 304 303 303 302 302 303 303 304 305 306 305 305 306 305 307 308 304 304 310 310 304 307 308 305 311 320 314 307 314 319 316 314 313 314 313 310 314 314 310 308 307 308 306 307 309 308 308 309 308 309 313 318 318 316 326 334
305 304 304 305 306 306 306 306 306 304 302 301 300 301 301 300 300 301 301 301 301 301 301 302 301 301 300 301 306 309 308 307 305 304 303 302 302 302 303 305 305 305 305 305 306 304 306 307 302 305 315 313 306 310 315 309 309 312 310 309 317 316 311 309 308 311 313 309 310 311 308 307 309 307 306 307 309 309 309 310 309 309 311 313 312 313 323 332
305 303 302 303 304 305 305 306 306 305 303 301 300 301 301 300 300 300 302 302 301 301 301 302 301 301 300 300 305 309 306 306 306 304 303 302 302 302 303 305 305 305 305 305 305 305 304 303 302 307 313 313 312 314 313 310 308 305 308 313 312 306 306 308 307 312 315 310 308 310 308 309 309 306 306 307 308 310 309 309 309 310 310 311 314 317 322 328
305 305 303 302 301 302 304 305 305 304 303 302 301 300 300 300 300 300 301 301 302 302 302 302 301 301 300 300 305 307 306 307 303 302 303 302 302 302 302 303 305 305 305 306 305 305 305 303 306 314 314 313 317 316 308 306 306 305 310 312 307 303 305 310 309 312 313 309 308 309 309 309 307 305 307 308 308 309 310 310 308 309 309 309 315 316 316 321
305 305 305 303 301 303 304 305 305 305 304 302 301 301 301 301 300 300 300 301 302 302 302 302 301 301 299 301 305 304 306 304 302 302 303 302 302 302 302 303 305 305 305 307 305 305 307 307 311 317 316 314 312 311 308 307 307 308 314 312 310 307 306 311 310 310 310 308 309 309 308 307 307 308 308 308 308 308 310 310 307 306 305 304 308 308 311 317
305 305 305 304 304 304 304 305 306 305 304 302 301 301 300 300 300 300 300 300 301 301 302 301 301 300 300 302 305 309 310 304 301 303 303 302 303 302 302 303 304 305 306 307 305 307 310 311 313 311 313 312 308 308 307 309 308 308 313 313 312 309 308 313 311 310 310 308 309 308 308 308 309 309 308 308 308 308 308 307 305 303 302 301 304 306 308 310
305 305 305 304 305 305 304 305 305 305 304 302 301 301 301 300 300 300 300 300 300 301 301 300 300 300 300 303 308 316 314 304 302 304 302 302 303 302 303 303 305 305 306 306 304 306 309 311 310 307 311 309 305 308 306 309 310 308 312 313 312 310 311 313 310 310 309 308 308 306 309 309 308 308 308 310 309 309 308 306 306 304 304 305 306 307 306 305
305 305 305 305 305 305 305 305 305 305 305 303 301 301 300 300 300 300 300 300 300 300 300 300 300 299 300 304 307 312 307 302 303 303 302 303 302 303 303 304 305 305 306 307 304 305 310 310 308 306 309 308 304 307 306 308 310 308 311 311 310 310 309 310 310 310 309 308 308 307 312 310 308 308 310 314 312 310 309 309 310 309 312 313 310 307 305 306
305 305 305 305 304 305 305 305 306 305 304 304 302 301 300 300 300 300 300 300 300 300 300 300 299 300 301 304 307 306 302 302 303 303 303 303 303 303 304 304 305 305 305 306 305 305 308 308 306 303 307 308 305 306 306 306 307 307 309 309 310 309 308 308 310 311 310 309 308 309 314 312 308 309 312 315 314 311 310 312 311 310 314 314 313 309 303 304
305 305 305 304 304 305 304 305 306 305 304 304 303 301 300 300 300 300 300 300 300 300 300 300 300 300 301 306 311 305 302 303 302 303 303 302 303 303 304 304 304 305 305 305 305 304 305 305 303 303 306 307 306 308 306 306 307 307 308 311 312 312 311 308 310 311 309 309 310 310 312 311 307 309 313 312 312 312 311 313 311 310 312 310 311 309 303 302
305 305 304 304 304 304 304 305 305 305 304 303 302 300 299 300 300 300 300 300 300 300 300 300 300 300 301 309 315 307 302 303 303 303 303 303 304 304 304 304 304 305 305 305 305 305 305 304 304 306 306 305 308 310 308 307 307 308 309 313 315 315 313 310 310 310 307 308 312 311 310 312 311 313 317 312 310 312 311 312 311 310 310 309 309 307 305 303
304 304 304 303 304 304 304 304 304 304 303 302 301 299 300 300 299 300 300 300 300 299 300 300 299 301 304 309 310 305 303 303 303 303 303 303 304 304 303 304 305 305 305 306 306 305 305 304 305 307 305 308 312 308 307 308 308 309 308 313 317 313 311 311 310 310 307 308 312 310 308 314 317 318 318 312 309 311 311 311 310 309 308 308 308 307 306 304
304 304 303 304 303 303 303 302 303 303 301 300 300 300 300 299 300 300 300 300 300 299 300 299 299 302 307 311 307 303 304 302 303 303 302 304 304 303 304 305 306 305 305 306 305 305 305 304 304 306 306 308 310 306 308 311 312 313 309 312 314 309 312 314 309 308 307 309 310 309 309 311 312 315 315 311 309 310 310 309 308 307 307 307 307 307 307 305
304 304 304 304 304 302 302 302 303 301 300 300 299 300 299 299 300 299 300 300 299 300 299 300 301 303 308 312 307 304 303 302 303 302 302 305 305 303 304 306 306 305 306 305 306 306 305 304 306 309 308 306 309 311 312 312 313 313 308 311 312 307 310 311 307 308 307 309 309 308 310 311 309 311 312 309 309 309 308 307 307 307 307 307 307 306 307 306
304 304 304 304 303 302 301 301 301 300 299 300 299 299 299 299 299 299 300 299 299 300 299 301 303 304 309 311 306 304 304 303 303 302 303 306 305 304 305 306 305 306 307 305 306 306 304 306 306 307 309 310 315 314 313 317 317 313 308 309 313 309 308 306 308 310 308 309 309 308 310 310 309 310 310 308 308 308 308 307 306 307 307 307 307 307 307 307
304 304 303 303 302 301 301 301 300 299 299 299 299 300 299 300 300 300 300 299 301 302 302 303 303 304 308 307 304 305 304 302 302 302 304 306 305 304 305 306 305 306 307 306 306 306 305 307 306 306 310 313 314 312 314 320 318 314 310 311 312 309 307 308 309 308 306 308 308 308 308 308 308 307 307 307 306 307 308 307 307 307 307 307 307 307 307 307
304 304 303 303 301 301 301 301 300 299 299 299 299 299 299 302 304 303 302 303 304 303 304 305 303 305 307 306 304 303 302 302 303 303 305 306 304 305 306 306 303 304 309 308 306 307 307 308 309 313 317 315 314 314 312 310 308 311 312 311 312 308 307 308 308 307 306 308 307 307 308 307 307 306 305 306 305 307 307 307 307 307 307 309 308 308 308 307
304 304 304 303 302 301 301 301 300 299 299 299 300 301 302 304 306 305 303 305 306 305 306 306 305 305 305 305 303 302 302 302 303 305 306 305 303 305 305 303 302 305 312 313 309 308 310 312 312 315 317 312 312 314 313 310 307 310 310 309 310 309 308 306 306 307 305 307 309 308 308 308 306 305 305 305 304 305 306 307 308 309 310 311 310 309 307 307
305 304 304 303 302 301 301 301 300 299 299 300 302 304 306 307 307 308 308 307 306 304 305 307 306 305 304 303 302 303 303 304 305 306 306 304 303 306 303 303 309 312 313 313 311 307 308 315 313 310 311 308 309 312 312 310 308 309 310 310 309 308 307 305 305 307 305 308 311 309 308 307 306 306 305 304 305 306 308 309 311 312 312 311 310 309 308 307
305 304 304 303 302 301 301 301 300 299 299 301 304 304 304 306 304 306 309 307 304 300 303 305 303 303 302 301 303 303 303 304 305 305 306 303 302 304 304 306 314 313 309 307 308 306 307 311 310 309 310 306 307 310 310 310 309 310 310 309 308 306 306 305 303 305 305 306 308 307 307 307 305 305 304 305 307 310 311 311 312 313 312 310 309 309 308 307
305 305 304 302 301 301 301 301 300 299 299 302 304 302 301 302 302 301 302 304 305 299 301 303 302 305 303 301 304 303 303 305 304 304 304 304 305 305 307 312 314 310 309 310 311 312 313 310 306 307 307 306 307 308 308 310 309 308 308 307 308 308 307 306 304 305 306 306 308 307 307 307 305 305 306 309 311 311 310 310 311 311 310 310 310 308 307 308
305 305 304 303 301 300 301 301 300 299 300 303 304 303 300 300 300 300 300 304 308 303 302 306 306 310 308 305 305 303 304 306 304 305 304 305 309 307 308 315 316 312 311 315 312 310 312 310 307 306 306 308 310 307 306 308 308 308 306 306 308 308 306 307 307 306 305 305 307 307 306 305 306 309 311 313 313 311 311 312 312 310 310 310 310 308 308 308
305 304 304 303 301 301 301 300 299 299 300 303 304 301 299 300 299 301 303 304 309 308 304 304 306 309 310 305 303 304 306 306 304 304 303 306 308 305 306 310 311 311 310 310 309 309 310 306 304 306 307 308 310 309 308 308 310 311 307 307 310 307 305 307 306 304 305 305 304 305 308 311 311 311 312 313 313 312 311 312 313 312 310 309 309 308 308 308
305 304 304 303 301 301 301 299 299 300 302 303 302 299 298 300 299 300 307 309 313 313 303 301 304 305 305 303 302 304 306 306 304 303 303 306 306 304 306 304 305 308 310 307 309 311 311 305 301 308 310 308 308 309 309 308 310 311 309 309 310 306 306 306 305 305 310 312 306 304 311 318 314 310 311 313 314 313 309 310 312 311 310 309 308 307 307 307
304 304 304 303 302 302 301 299 299 302 303 301 300 299 298 300 299 300 312 317 318 317 305 301 304 304 304 303 304 303 304 305 303 303 304 305 305 303 305 306 303 305 308 308 310 308 306 303 302 308 311 309 310 308 306 308 311 310 309 308 307 305 305 306 305 307 312 313 307 304 310 314 311 309 311 313 313 311 308 309 311 310 309 309 308 306 306 306
305 304 304 304 302 302 301 300 302 303 303 302 301 298 298 300 299 300 312 317 315 315 308 303 304 303 304 303 302 305 304 305 303 304 304 305 305 302 304 310 306 305 306 308 311 309 306 306 304 307 311 311 311 307 305 308 311 311 307 304 306 305 305 306 304 306 308 307 307 307 308 309 309 309 309 310 310 309 309 311 310 309 309 308 307 306 306 306
305 304 304 303 302 302 301 301 303 301 301 304 300 298 299 300 299 304 314 314 311 311 309 306 303 302 304 301 302 307 305 303 303 303 301 302 304 303 307 311 306 307 306 306 310 312 305 306 305 306 310 310 309 306 306 307 308 311 307 303 305 304 304 305 304 305 303 304 312 310 305 308 311 311 308 307 309 309 310 309 307 308 309 307 306 306 305 305
305 304 304 303 302 302 301 302 303 301 302 304 299 299 300 297 302 312 315 311 310 310 307 305 304 303 304 302 303 307 305 303 303 302 301 303 302 302 306 307 307 310 306 304 311 311 303 303 304 304 306 308 310 308 307 307 307 308 305 304 305 303 303 302 301 306 304 307 317 311 305 309 311 312 309 308 310 309 307 305 306 308 308 307 306 306 305 305
305 305 304 303 303 302 301 301 302 302 303 302 299 300 299 301 315 319 311 311 312 309 304 304 305 303 304 304 303 305 305 307 307 303 304 306 304 303 302 302 305 309 307 305 308 308 303 302 302 304 306 306 306 306 304 306 307 307 306 307 307 304 303 301 300 303 307 315 316 308 306 307 310 315 314 310 309 306 304 304 306 308 307 306 306 305 305 305
305 304 303 303 303 302 301 300 302 303 302 300 299 299 300 309 325 321 311 313 311 308 305 305 307 306 305 305 305 305 305 308 308 306 308 309 310 311 306 305 307 311 316 313 309 309 305 304 306 305 305 304 305 305 301 300 304 306 308 309 309 310 308 306 307 307 312 320 312 303 304 304 310 318 314 310 308 304 304 306 307 308 307 305 305 305 305 305
304 304 303 303 302 301 301 301 303 302 300 299 298 302 309 308 311 315 317 317 310 309 308 307 309 309 306 305 305 306 305 306 307 308 309 309 312 313 308 307 306 313 324 316 310 314 309 305 305 304 304 303 306 309 306 305 306 307 311 309 309 317 315 311 315 315 317 317 307 302 305 306 310 314 310 309 306 304 305 307 308 308 306 305 304 304 304 304
305 304 303 302 302 301 300 302 303 301 299 299 300 309 317 308 306 314 318 316 309 306 308 308 307 306 305 305 305 305 303 303 306 307 304 304 309 307 304 305 302 305 315 309 305 314 315 310 304 304 306 302 304 310 311 311 310 309 310 307 309 317 317 315 318 315 313 312 306 303 306 309 312 314 312 309 305 306 308 308 308 307 305 305 304 304 304 305
305 304 303 303 302 302 301 301 303 301 298 299 305 312 309 306 312 314 313 314 308 303 306 307 305 303 303 304 305 304 302 303 304 305 304 304 309 308 306 306 301 303 310 307 302 305 310 312 307 303 304 304 305 307 308 309 308 308 306 304 309 314 314 316 318 315 312 310 306 304 308 314 315 314 312 308 306 309 309 306 306 306 304 304 303 303 304 306
305 303 303 304 302 302 302 300 302 301 297 301 308 310 304 304 311 314 317 317 308 305 305 303 303 304 305 307 306 303 303 303 303 303 305 306 310 312 312 311 304 302 306 305 303 302 304 308 307 302 301 303 306 305 305 307 307 305 303 304 307 309 311 312 312 312 308 307 306 306 311 316 314 312 310 309 311 310 307 305 304 304 303 302 302 302 303 305
304 303 303 303 302 303 301 301 302 299 298 303 305 304 305 307 311 314 317 313 309 308 305 304 306 305 308 311 308 303 301 302 302 304 305 305 307 309 311 313 306 302 304 303 303 304 306 309 306 302 304 303 305 306 304 306 306 305 305 306 303 301 308 311 308 306 304 307 309 308 311 313 311 313 312 311 313 308 304 304 303 303 302 302 302 302 303 305
304 303 303 303 302 303 301 301 302 299 299 303 303 306 308 308 311 315 312 306 307 309 308 312 313 308 312 314 308 305 303 302 303 305 309 308 306 308 310 310 303 301 303 303 302 300 303 309 305 302 307 304 300 304 306 303 306 308 307 306 301 299 305 307 306 308 307 309 310 309 311 312 311 314 313 312 312 307 305 304 303 303 302 302 302 301 303 305
303 303 303 303 303 303 301 301 300 299 301 302 302 310 311 305 307 313 310 304 305 308 310 315 311 307 313 314 310 305 303 307 308 308 311 309 306 310 312 309 304 301 302 302 303 300 301 307 306 300 304 305 300 304 307 302 300 304 305 302 300 301 305 305 306 310 310 309 310 310 311 311 314 315 312 312 311 306 304 303 302 302 302 302 302 301 303 306
303 303 303 302 303 303 301 301 299 299 303 302 301 308 309 305 306 310 309 306 306 308 310 311 306 305 309 312 311 306 303 310 312 308 309 308 305 307 308 308 306 304 302 301 304 305 302 305 309 304 300 302 303 304 307 305 299 301 305 304 301 301 304 305 304 308 310 310 310 311 311 313 316 317 313 312 311 306 304 303 302 302 301 301 301 301 303 305
302 303 303 301 302 302 300 300 299 299 303 303 302 305 306 305 306 305 304 306 306 305 306 310 308 306 308 306 307 308 304 307 310 309 308 307 306 305 305 306 307 304 302 301 304 307 304 302 309 310 301 301 304 303 306 308 303 304 307 305 303 303 303 302 301 304 308 311 311 310 310 311 313 315 314 311 309 306 304 304 302 301 301 301 301 302 304 306
301 303 303 300 301 301 299 299 299 299 302 303 303 303 304 305 306 305 302 302 302 301 304 310 309 307 309 306 306 308 305 304 305 306 306 306 306 305 304 305 306 303 302 302 304 306 305 303 308 311 308 309 307 300 300 304 305 308 307 305 306 306 304 302 302 303 304 307 310 308 308 310 310 315 316 311 308 306 305 304 302 300 300 300 301 303 305 307
302 303 301 299 300 299 298 300 300 300 303 304 303 302 305 307 306 306 302 300 301 302 302 305 307 308 309 308 307 307 307 307 304 304 306 307 305 303 302 302 304 304 305 305 304 303 303 304 307 309 309 307 300 295 296 299 300 303 302 302 305 305 305 305 305 305 303 303 306 306 308 311 311 315 317 312 307 305 305 305 302 300 300 300 301 304 306 307
302 301 298 298 298 298 298 301 301 301 304 305 302 300 304 307 305 304 302 301 302 302 301 303 304 305 306 305 304 305 306 307 305 306 310 306 302 301 300 301 303 304 305 305 302 301 303 305 307 309 311 305 297 295 296 296 297 302 301 300 303 304 305 306 304 303 303 305 307 307 308 311 313 316 316 312 307 304 304 305 303 301 300 300 302 303 306 308
300 299 297 297 298 297 299 302 302 300 301 303 301 299 302 304 304 304 303 303 303 302 303 303 301 303 306 304 304 305 304 304 304 304 306 303 301 300 299 301 301 301 303 303 302 302 304 307 307 309 312 312 309 308 305 300 300 304 303 301 302 303 303 303 301 301 303 305 307 309 311 313 312 314 310 306 305 304 302 302 302 302 300 300 301 302 305 307
299 299 297 296 297 297 298 299 300 300 300 300 300 301 303 302 303 305 304 304 305 304 303 303 302 305 306 302 303 304 302 303 303 302 302 302 300 299 301 301 300 302 305 304 302 300 303 306 306 306 309 311 314 318 313 305 303 303 301 299 300 302 302 303 302 303 305 305 305 310 314 310 306 305 304 302 302 302 302 301 301 302 301 301 301 302 305 307
301 301 299 297 297 297 296 295 297 299 300 300 300 302 304 302 302 303 302 302 304 303 302 302 302 305 304 301 303 303 301 301 302 302 303 302 301 300 301 302 302 304 304 302 302 303 304 304 303 307 310 309 309 311 305 300 301 302 300 300 301 300 301 303 303 304 305 304 305 309 308 306 305 303 302 301 300 301 302 301 300 302 302 301 301 301 303 306
303 303 300 299 299 298 297 296 296 298 300 300 301 303 302 301 302 302 300 300 302 302 301 300 301 303 303 303 303 304 302 301 301 302 303 303 302 300 298 301 304 303 301 300 301 303 305 304 302 305 307 305 303 303 299 297 299 300 299 301 302 300 299 300 302 304 302 301 305 307 303 302 304 302 300 300 300 301 302 300 299 302 302 302 301 302 302 305
303 303 301 301 303 301 298 298 297 297 300 300 301 303 302 300 301 302 301 299 299 301 301 301 301 303 304 304 303 304 303 302 302 303 303 304 303 301 300 299 301 301 301 300 301 304 306 305 301 300 303 304 301 299 299 298 298 299 298 300 300 300 300 300 300 301 300 300 303 304 301 300 301 300 299 300 299 300 301 300 299 302 303 303 302 302 301 302
302 302 300 301 305 303 300 300 298 297 299 300 301 303 303 301 301 302 302 300 300 301 302 302 303 303 304 304 304 305 305 304 306 305 303 304 304 303 304 302 300 299 300 301 301 302 304 306 301 297 303 307 302 299 297 297 298 299 299 298 297 298 299 299 298 298 298 300 301 300 299 298 298 297 298 298 299 301 301 299 299 300 302 303 303 302 302 302
303 303 302 300 301 301 300 300 299 298 298 299 300 301 301 301 301 302 302 303 303 303 301 301 303 304 302 302 305 307 306 306 310 309 304 303 304 303 304 306 304 299 299 301 301 298 299 304 301 297 303 308 302 297 296 296 298 300 299 297 296 296 297 296 296 296 297 298 297 296 297 296 296 297 299 300 301 301 300 299 298 298 299 300 302 302 302 302
302 301 301 300 301 300 299 299 299 299 299 299 299 300 300 301 302 302 302 303 304 304 301 301 304 303 300 301 304 305 305 308 312 312 306 304 305 304 303 305 306 303 300 299 300 298 297 300 298 295 302 310 302 297 300 299 296 298 301 301 297 296 298 297 295 295 297 299 298 297 300 305 305 302 301 302 300 299 300 299 298 298 298 297 298 300 301 302
301 299 299 300 303 300 298 298 299 299 300 299 299 300 300 301 301 301 302 302 303 304 302 301 303 303 300 301 303 304 306 307 305 304 302 303 306 305 303 303 303 303 301 298 299 300 298 301 302 298 303 311 302 297 301 301 302 310 315 310 302 297 296 295 294 294 295 298 301 302 305 310 309 302 300 302 302 300 300 299 297 298 298 297 296 297 299 301
Wind_Speed
2 3 3 3 3 4 4 5 3 3 3 3 4 3 4 4 4 3 4 4 6 8 10 13 13 14 14 13 10 7 9 8 13 24 19 12 13 15 16 17 18 21 22 20 21 15 10 13 14 12 5 3 6 3 4 3 3 4 3 2 2 2 3 4 4 4 2 3 5 4 3 0 6 6 4 5 1 2 7 8 5 4 5 6 4 10 11 4
3 3 3 3 2 3 4 5 4 4 4 4 4 4 5 5 5 5 4 4 5 8 9 12 14 14 15 15 9 7 8 4 10 20 15 12 14 14 14 16 18 20 22 21 20 16 9 8 11 11 6 3 4 3 3 3 3 3 3 1 3 4 4 4 4 3 2 3 5 4 2 0 4 5 4 5 7 8 9 10 5 6 8 7 5 11 10 4
3 3 3 3 3 2 3 5 5 5 5 5 5 5 5 6 6 6 5 5 5 7 9 11 14 14 15 15 10 8 7 1 6 10 10 13 14 13 14 15 17 18 20 17 15 14 8 4 6 6 4 4 3 3 3 3 2 2 3 0 5 4 4 4 3 5 4 3 4 5 1 1 5 3 2 4 8 10 9 10 7 8 9 6 7 10 10 5
4 4 4 4 3 2 3 5 6 6 5 5 6 6 6 6 7 7 7 6 6 8 9 11 13 14 15 14 10 8 4 4 3 5 8 12 13 14 14 14 17 17 17 14 10 11 8 4 4 5 4 3 4 3 4 4 2 1 2 3 5 2 2 4 4 5 5 2 3 4 4 6 5 1 1 1 6 10 9 9 8 10 11 7 7 8 8 9
4 5 5 4 3 3 5 7 7 6 6 6 6 6 7 7 7 8 8 7 8 8 9 11 12 13 15 13 10 7 3 4 3 4 8 11 12 15 14 13 16 16 15 11 8 9 10 7 6 6 5 3 5 4 2 3 2 0 2 4 4 2 2 5 3 3 3 2 3 4 6 6 3 2 3 4 5 8 8 7 6 7 9 7 5 7 7 8
4 5 5 5 4 4 5 6 7 7 6 6 6 7 7 7 7 8 9 8 8 9 9 10 12 13 15 12 8 6 4 2 3 4 8 10 12 14 14 13 13 15 14 11 10 11 11 9 6 5 4 3 3 3 1 4 3 1 3 2 3 4 3 5 2 2 2 2 6 4 4 4 4 6 4 7 12 12 11 9 5 7 9 8 6 6 6 5
4 5 5 6 5 5 6 6 8 8 7 6 6 7 7 8 7 8 9 9 8 9 9 9 11 13 14 10 6 5 5 1 3 4 7 10 12 13 13 11 12 15 14 16 14 7 7 8 6 4 3 3 1 1 1 5 3 3 2 5 3 3 5 5 3 4 3 5 9 3 4 6 6 7 2 6 14 14 14 10 7 11 12 9 7 7 7 7
4 5 5 6 6 6 6 7 8 8 8 6 5 6 7 7 7 8 9 9 8 9 9 8 10 12 13 9 2 3 4 1 3 5 8 10 12 13 11 9 11 15 15 18 14 4 4 7 4 3 3 2 2 0 1 4 4 4 4 4 3 3 6 7 6 7 7 7 7 3 6 10 8 4 4 12 16 12 10 9 7 9 10 9 7 8 8 8
5 5 5 6 6 6 7 8 9 9 9 6 5 5 6 7 7 7 8 9 8 8 9 8 9 11 12 7 4 3 2 2 3 5 8 10 13 13 10 9 12 14 14 15 14 8 3 2 1 3 3 3 3 1 2 3 2 3 4 4 5 7 7 7 7 6 6 5 2 2 8 9 5 2 6 14 15 8 5 5 4 4 7 8 7 8 7 7
5 5 5 6 6 7 7 8 10 9 9 7 5 4 5 6 6 6 7 7 7 8 8 7 8 10 9 5 5 3 2 1 3 5 7 11 12 10 9 10 11 12 12 11 13 11 4 3 2 3 4 3 2 1 0 1 0 3 3 5 7 9 8 4 4 5 4 3 2 3 8 8 3 1 5 11 7 1 4 5 4 3 6 8 7 8 7 6
5 5 6 6 7 7 7 8 10 10 9 7 6 5 5 5 5 5 5 6 6 7 7 6 8 9 7 4 4 2 2 1 2 5 8 11 12 9 9 10 9 10 10 8 9 8 5 2 4 3 2 1 1 1 0 1 0 1 2 6 8 8 7 2 1 4 4 2 4 5 8 7 0 1 8 12 3 5 6 8 7 5 6 7 8 9 7 8
5 5 6 6 7 8 8 8 10 10 9 8 6 4 3 3 3 4 4 5 5 6 7 6 7 8 6 4 3 3 1 0 3 6 8 10 11 7 8 11 9 7 7 6 6 5 5 2 2 3 1 1 1 2 1 1 1 1 3 4 8 7 6 4 2 2 5 3 4 4 7 6 3 6 13 11 5 6 7 9 9 8 7 7 7 7 7 10
6 6 7 7 7 8 8 9 9 10 9 7 6 3 2 2 2 2 3 4 4 5 6 5 6 6 5 2 2 1 1 1 2 6 8 9 9 4 6 11 8 4 4 5 4 3 4 3 2 3 2 3 0 1 2 3 3 1 3 3 5 8 5 3 2 4 7 3 0 1 5 7 5 9 13 8 5 7 7 8 9 9 8 7 7 6 7 10
7 6 7 7 8 8 8 9 9 9 8 7 5 3 2 2 2 2 2 3 4 5 6 5 6 4 3 1 2 1 1 2 1 6 8 8 8 4 6 11 5 2 2 3 3 3 3 3 3 3 1 2 0 1 3 5 4 2 2 2 3 5 4 5 4 4 6 2 2 3 3 9 8 10 13 7 5 6 7 8 9 9 9 7 7 7 8 9
7 7 7 7 8 8 9 8 9 8 7 6 5 3 2 2 2 1 2 2 3 4 5 5 5 2 2 2 2 1 2 2 1 7 8 8 9 5 8 9 4 4 3 1 1 2 3 2 3 3 1 2 3 3 3 3 4 3 3 3 3 1 5 9 6 1 2 3 2 3 4 9 9 10 12 7 5 7 10 11 10 10 9 8 7 7 7 9
9 8 8 8 9 9 8 8 9 8 6 6 4 3 2 1 1 1 1 2 3 5 5 4 2 2 3 1 1 1 1 1 2 7 7 7 8 6 9 4 3 5 4 2 2 3 4 4 3 2 1 2 4 3 4 4 4 4 3 4 5 2 5 8 5 0 1 2 2 1 5 8 8 10 12 10 8 8 10 12 11 9 9 8 6 6 6 7
10 9 8 9 10 9 8 8 8 7 6 5 4 2 1 1 2 2 2 2 2 4 3 2 1 2 2 0 0 1 2 2 5 7 5 6 6 6 6 2 2 5 5 5 3 2 3 4 1 2 2 4 2 3 5 5 5 4 3 2 5 3 4 6 5 4 4 1 3 3 5 10 14 14 15 14 10 7 9 11 10 8 8 7 5 6 6 7
10 9 9 10 10 8 8 8 8 7 6 4 3 2 2 3 3 2 2 1 0 1 1 1 1 1 1 0 0 2 4 5 6 4 3 5 6 5 4 2 2 3 4 4 2 2 3 3 2 1 3 4 3 6 5 2 3 3 3 3 5 4 4 6 7 4 5 3 5 5 6 12 17 15 14 14 8 6 9 9 8 8 7 7 6 5 6 7
11 10 9 10 10 8 8 8 8 7 5 4 3 2 3 4 3 2 1 2 2 0 1 1 0 0 1 1 1 4 5 5 4 1 3 7 5 2 3 4 3 2 3 3 2 4 3 3 4 2 3 3 2 5 4 5 6 5 4 3 5 7 6 8 9 4 4 5 7 6 8 12 16 15 14 14 8 5 9 8 7 7 6 6 5 5 6 7
13 12 11 11 10 9 8 7 7 7 5 3 2 2 2 2 2 3 2 1 2 2 0 2 1 0 1 1 3 5 3 1 1 0 4 9 5 0 2 5 5 4 4 1 3 3 4 4 2 2 4 4 4 4 5 5 5 4 3 3 5 7 9 9 7 4 2 3 6 5 7 13 15 14 14 12 8 6 8 7 6 6 5 6 5 6 7 7
14 13 12 11 10 9 7 6 6 5 4 3 3 2 1 1 1 3 4 2 2 1 1 2 2 1 2 2 3 3 1 1 1 1 5 9 4 0 2 4 5 5 2 2 2 2 4 3 3 6 6 4 4 4 5 4 4 3 2 3 5 5 9 10 5 3 3 3 6 6 8 14 14 13 13 8 6 7 7 6 6 7 6 6 6 7 8 7
15 14 12 10 10 9 6 6 5 4 2 2 4 3 3 3 2 0 1 2 3 1 1 0 0 2 3 2 3 1 3 2 2 2 6 8 4 1 2 5 4 2 3 3 3 5 4 1 6 5 3 3 4 4 5 4 3 2 2 1 4 4 6 9 3 1 2 2 5 7 7 13 14 11 11 7 5 7 7 6 6 6 6 7 7 7 7 7
16 13 11 9 9 7 5 4 4 3 0 2 3 3 4 4 4 2 2 0 4 2 1 0 1 1 2 2 2 1 3 1 2 3 7 7 4 2 3 5 3 0 4 4 4 3 3 3 5 2 3 4 3 3 5 4 1 3 3 1 5 4 2 5 3 2 6 3 4 7 8 10 9 6 8 7 6 6 7 7 7 6 7 8 7 6 7 8
15 12 9 8 7 6 4 3 3 2 2 3 3 3 4 4 4 2 1 1 3 3 1 2 2 2 1 1 1 2 1 1 2 3 7 5 2 1 2 3 2 2 2 2 6 3 4 4 1 3 3 3 1 3 4 4 3 3 5 4 5 4 2 5 5 9 9 2 1 7 7 5 3 4 7 6 3 5 5 4 7 7 6 7 6 7 7 7
15 11 9 7 6 5 3 3 3 3 3 3 4 5 5 4 3 2 2 3 3 4 2 2 1 2 4 3 1 1 1 0 2 2 5 3 3 1 2 2 1 2 2 3 4 1 5 2 2 3 3 4 2 2 2 3 4 5 4 7 7 5 5 6 7 9 6 3 4 6 5 5 4 4 7 5 5 7 6 4 8 8 6 6 6 7 7 7
15 11 8 7 6 4 2 2 4 6 4 3 5 6 5 4 2 2 3 5 4 4 1 2 1 2 4 1 3 1 2 1 2 1 2 3 2 2 1 1 1 1 4 3 0 1 1 3 3 2 3 4 4 1 3 4 4 5 3 5 5 5 6 6 6 4 2 4 4 5 3 5 5 5 7 5 5 9 8 7 8 7 6 5 6 7 7 7
14 12 8 7 6 5 3 2 6 7 3 4 7 8 5 4 3 2 4 5 4 2 3 1 0 2 3 1 3 1 1 2 0 1 1 2 1 2 1 3 1 1 3 1 2 2 2 2 4 3 5 4 3 1 4 5 4 4 3 2 4 7 8 7 3 0 1 3 5 4 3 3 5 6 7 4 6 9 9 8 8 6 5 7 8 8 8 7
14 12 8 7 7 8 6 3 6 7 3 6 10 9 6 4 4 2 5 2 3 1 3 1 1 3 1 1 3 1 2 2 2 2 1 2 2 2 1 3 4 2 2 2 2 4 2 2 1 2 4 2 1 2 5 6 2 6 3 3 8 7 6 4 2 2 0 2 5 4 3 1 5 6 6 4 5 8 8 8 8 6 7 9 10 9 9 8
15 12 8 8 9 10 9 6 7 7 5 9 11 9 7 4 2 4 5 1 1 1 1 0 2 2 2 2 3 2 2 2 1 2 3 2 1 3 1 3 5 2 2 1 4 4 2 2 4 4 1 3 5 4 6 6 2 5 5 8 6 1 1 1 3 2 2 2 4 3 1 2 5 6 5 3 4 8 9 7 6 6 9 11 11 10 10 9
15 12 9 9 10 10 9 9 9 8 7 10 11 9 7 3 3 6 2 3 1 0 0 1 1 0 3 1 3 3 1 2 2 3 2 1 2 4 2 1 5 4 2 3 3 4 1 1 3 4 3 5 4 3 4 5 4 4 6 5 4 4 3 2 2 2 4 2 5 4 3 1 3 6 4 2 6 9 9 8 8 9 11 13 12 9 10 10
15 13 11 12 11 9 7 7 9 10 9 12 12 8 4 2 5 5 3 4 1 0 1 1 1 3 3 2 2 2 1 3 5 3 2 2 3 4 3 2 3 3 3 5 4 5 5 3 0 1 2 2 1 1 1 1 1 3 4 3 5 5 2 3 4 4 3 4 5 4 4 2 2 6 5 6 8 7 7 9 12 13 13 14 12 10 10 10
15 13 12 13 12 10 7 5 9 11 10 13 11 4 4 2 0 4 4 3 1 1 2 1 1 4 3 0 1 2 1 2 3 3 1 2 2 3 2 0 0 3 4 3 3 6 4 1 2 3 1 2 0 2 4 3 3 5 5 6 5 5 4 4 4 2 1 4 2 5 3 1 4 8 9 10 9 6 5 7 10 14 15 14 12 11 10 8
16 14 14 13 12 12 10 6 8 11 12 14 8 4 6 3 4 6 5 2 0 1 1 2 3 4 2 1 1 2 1 1 2 3 0 0 2 2 1 2 2 2 1 2 2 5 4 4 4 3 2 1 1 2 2 3 4 5 3 4 3 2 5 5 4 3 3 5 2 4 3 2 5 7 7 6 5 4 5 8 10 13 14 13 12 11 10 8
17 16 16 14 13 13 12 8 7 10 14 12 5 5 4 4 5 4 5 4 1 1 2 3 4 4 2 1 2 2 1 1 1 2 1 2 2 1 2 2 1 2 2 1 1 2 1 4 2 1 1 1 1 1 3 3 2 2 3 3 2 3 1 3 3 2 5 6 4 2 2 2 4 6 4 1 3 4 5 9 11 12 12 12 12 11 10 8
19 18 16 14 13 14 13 11 8 11 14 8 6 4 6 6 4 2 4 4 2 1 2 2 4 4 1 1 2 2 2 2 1 2 2 1 2 2 2 3 1 2 3 1 1 2 1 5 4 2 2 1 1 1 3 4 2 1 3 4 1 2 4 2 4 4 3 5 5 2 3 4 5 7 6 4 5 7 8 10 13 14 13 12 11 10 10 9
21 19 15 14 15 14 14 13 9 11 11 6 4 5 6 5 4 4 4 3 4 5 5 2 3 3 1 3 2 1 1 1 0 1 1 2 3 3 2 3 3 3 4 3 1 1 1 5 4 3 2 1 0 2 0 2 1 0 2 1 2 2 5 2 3 2 2 2 4 3 4 5 4 6 5 4 8 11 10 11 13 14 14 12 10 10 9 8
21 17 12 13 15 14 14 13 10 10 6 5 6 8 5 5 5 5 3 3 3 4 7 3 2 4 3 2 2 2 1 2 0 0 2 2 2 4 3 2 2 2 3 3 2 1 1 4 4 1 1 2 1 2 3 4 1 3 1 2 1 2 4 3 1 4 4 1 4 4 6 7 5 3 3 7 13 15 13 13 14 15 14 12 11 11 9 8
19 12 7 12 17 13 12 13 11 8 4 4 7 7 4 5 4 4 4 4 2 3 5 4 4 4 4 3 3 3 2 2 1 1 2 2 2 3 4 2 1 0 3 1 2 0 1 2 5 0 2 3 2 2 2 5 3 3 3 3 2 2 1 1 1 2 3 4 6 5 6 6 2 3 5 10 14 17 16 14 16 18 16 12 11 11 10 8
16 6 2 10 17 13 13 14 10 5 3 5 9 5 4 5 3 2 4 3 3 3 4 5 2 2 4 4 3 3 3 3 3 2 2 2 2 2 4 3 1 0 3 1 3 1 2 1 4 3 2 2 3 1 1 2 2 2 2 2 2 3 3 1 0 1 1 3 5 5 6 5 4 4 4 8 11 14 15 13 14 17 15 10 10 10 9 7
12 3 2 8 15 15 16 14 8 4 3 6 7 4 3 4 2 2 2 1 1 2 3 5 3 3 4 3 3 3 3 3 4 3 2 2 2 3 3 3 4 3 1 3 3 1 2 2 4 4 2 2 2 2 4 4 2 1 2 1 1 1 0 1 1 2 3 1 2 3 6 6 6 4 1 3 8 9 9 9 10 13 13 11 10 10 8 4
8 2 3 6 17 20 18 12 4 4 4 3 3 3 2 2 2 1 2 2 1 0 1 4 4 4 4 3 3 4 3 3 3 2 3 3 2 2 2 4 7 6 2 3 2 1 1 2 3 4 3 2 4 3 1 4 4 4 3 3 2 1 1 1 3 2 2 3 3 1 5 8 7 3 3 0 5 5 4 5 9 12 12 11 10 10 8 3
5 3 2 6 21 24 16 6 2 2 3 3 3 3 2 2 3 3 1 1 1 1 1 3 3 3 4 3 3 4 4 3 3 2 3 4 3 2 2 2 7 7 5 2 2 2 2 3 1 4 4 3 4 4 2 1 3 4 2 3 4 3 4 3 2 4 1 1 1 1 2 8 7 4 3 3 4 5 4 2 7 10 10 10 10 10 7 4
3 3 2 6 19 19 9 4 3 2 3 4 2 1 1 2 2 3 3 2 1 2 1 0 2 2 3 3 4 5 5 4 5 4 3 4 3 2 3 1 6 5 4 2 2 1 2 3 1 4 4 2 3 3 3 4 4 3 1 2 4 3 4 5 4 3 1 2 0 1 3 8 6 3 4 4 4 5 4 2 5 8 9 9 9 9 7 4
3 3 2 3 12 12 6 5 6 6 6 2 1 2 1 1 3 4 5 5 4 4 3 2 3 2 2 3 4 5 6 4 4 5 3 3 2 1 2 2 4 3 2 2 3 3 1 1 2 3 6 6 6 5 5 5 1 2 1 2 3 4 6 4 2 2 1 4 5 3 4 8 6 2 3 7 6 6 4 2 3 6 7 8 7 7 6 4
4 3 2 1 5 6 4 2 3 5 7 4 4 5 2 1 3 3 5 6 3 3 4 2 2 3 3 3 3 3 4 2 1 2 2 2 2 3 3 2 1 1 2 2 1 3 2 2 3 2 1 3 4 4 4 3 2 1 1 3 4 5 7 4 1 3 2 4 5 4 6 9 10 10 11 12 10 9 6 4 3 4 5 6 6 6 5 3
4 3 3 1 1 2 2 1 3 3 7 7 4 5 7 6 3 1 3 5 3 3 2 0 2 4 3 3 3 3 3 1 2 2 2 3 2 2 2 2 3 1 3 1 3 4 3 1 3 5 6 6 6 6 2 1 1 3 4 4 5 5 6 6 4 3 4 2 2 7 9 9 15 15 13 13 13 11 9 8 6 5 6 7 6 6 6 2
4 3 6 5 1 3 4 3 3 2 3 8 5 4 12 12 4 1 1 1 3 3 2 1 2 4 5 6 4 3 3 2 2 2 3 3 1 2 1 1 3 1 3 3 3 4 4 2 4 6 9 9 6 6 2 2 3 6 6 5 6 7 7 7 6 6 5 2 4 8 4 5 14 14 13 13 12 10 10 9 7 6 5 6 6 6 7 4
4 1 5 8 4 6 9 8 9 7 5 8 7 4 10 15 10 5 2 1 1 3 3 1 4 7 10 10 7 4 4 2 2 4 3 3 2 1 1 0 0 0 1 2 2 3 5 3 4 4 7 9 7 8 5 3 5 6 7 9 7 8 10 12 12 9 8 5 9 7 3 8 15 15 15 13 9 8 10 8 6 6 4 4 6 7 7 6
3 1 2 5 2 6 10 8 11 12 10 7 6 4 9 15 15 8 3 4 1 5 6 7 8 11 11 10 9 6 6 5 4 5 5 3 3 3 2 1 2 1 2 3 1 1 4 3 2 2 5 9 8 7 4 3 5 6 10 13 10 10 13 13 11 8 8 11 14 10 12 16 17 15 15 12 8 7 8 7 5 5 4 4 5 6 6 6
5 2 3 2 1 4 6 7 11 12 9 5 8 11 9 12 15 8 4 7 8 5 8 12 11 11 12 10 9 7 11 12 7 6 9 6 3 4 4 3 3 2 2 3 1 0 1 2 1 3 3 8 6 2 2 2 5 7 12 13 9 8 10 10 8 5 6 11 13 9 12 16 14 11 11 10 7 5 6 7 6 4 4 4 5 6 6 6
8 7 8 5 4 7 6 6 9 9 9 8 10 11 8 10 14 11 6 10 12 9 12 17 12 8 7 9 10 12 14 11 6 7 13 11 6 6 4 4 7 7 4 3 2 2 2 1 1 4 1 6 4 2 3 4 4 8 15 14 10 9 7 7 6 6 8 7 4 2 5 10 8 5 5 7 5 4 6 7 7 6 4 4 5 5 6 6
9 7 8 6 4 6 7 7 9 9 10 13 13 11 10 10 11 12 8 7 7 8 12 16 13 8 5 11 15 14 9 8 5 4 7 6 4 4 3 5 8 8 8 6 3 2 4 3 2 3 1 6 5 2 3 5 5 8 11 9 9 10 6 3 3 7 11 8 5 4 7 7 4 2 4 6 6 6 6 5 5 7 6 5 5 5 5 6
Wind_Direction
24 38 30 24 19 16 360 339 303 256 238 243 252 267 284 295 303 319 344 358 6 8 8 7 5 5 2 358 357 349 352 1 23 39 48 27 2 359 354 347 349 353 356 355 3 13 358 5 9 10 53 58 7 350 8 14 41 51 85 91 252 210 194 198 191 202 197 262 275 322 13 56 301 310 321 317 294 298 309 296 274 279 258 222 257 328 330 247
1 14 11 4 4 12 352 331 305 276 247 247 252 259 276 279 288 296 312 333 343 352 356 358 359 358 359 357 353 350 348 355 37 41 39 14 5 1 355 355 355 354 358 0 7 12 4 354 346 2 48 46 349 348 17 6 35 78 118 105 236 205 215 209 198 225 215 257 275 293 302 182 285 297 346 322 302 333 324 295 290 296 279 251 286 348 354 223
343 344 340 341 347 5 347 329 312 289 259 249 254 256 272 273 279 288 293 311 320 334 343 349 352 352 355 353 350 349 341 11 36 27 21 10 8 5 1 2 359 358 359 358 6 11 13 359 346 11 52 53 359 356 30 7 17 113 120 126 245 220 250 250 231 247 238 264 295 286 308 333 271 267 345 314 304 313 294 279 284 284 286 293 315 345 352 285
336 333 329 336 328 327 343 334 315 302 279 254 255 258 268 273 273 280 286 296 305 318 329 340 344 347 352 349 348 343 350 55 13 345 4 6 8 7 5 3 1 1 355 353 11 19 25 31 28 44 59 45 343 17 43 343 8 119 143 185 231 208 282 264 237 255 258 259 267 281 329 310 279 226 253 305 313 296 270 257 248 264 286 306 319 335 342 310
338 342 346 348 333 324 339 336 321 313 295 264 256 258 265 273 273 275 282 289 297 309 318 334 339 343 350 348 343 338 33 52 338 338 360 358 3 4 5 2 3 2 352 357 24 36 37 33 43 47 50 45 347 27 41 315 57 31 231 188 221 193 265 269 257 264 251 275 280 292 309 294 297 280 222 197 247 262 261 260 239 246 270 284 307 330 335 314
338 341 348 354 359 349 342 341 335 325 306 279 261 258 267 273 275 275 278 285 293 304 312 328 336 340 346 348 344 354 83 94 314 355 350 352 359 360 4 2 6 1 354 17 37 45 41 27 44 51 41 53 7 33 331 308 36 343 287 295 248 191 220 270 304 272 226 297 282 272 288 303 325 296 230 199 233 245 257 272 283 273 271 281 290 302 304 293
331 335 342 349 358 354 348 347 342 334 316 292 267 259 268 272 278 278 277 284 289 300 310 325 335 338 345 347 344 15 77 122 303 348 343 355 358 357 5 2 8 4 8 28 30 52 60 38 58 97 70 61 29 50 306 320 23 129 260 310 290 199 232 260 277 277 269 267 263 273 320 297 283 288 301 234 245 249 262 278 289 284 288 292 282 268 266 261
318 328 335 340 347 350 351 348 343 340 328 307 279 267 270 275 280 281 280 283 287 296 305 322 333 337 345 349 5 22 37 306 302 341 346 356 357 358 4 4 11 14 31 34 23 43 81 51 72 132 76 74 160 172 334 346 26 132 217 285 299 265 261 270 281 282 278 266 267 289 287 272 253 265 297 263 261 258 261 280 285 289 300 292 276 267 261 259
311 317 327 332 338 346 348 347 344 340 335 325 299 276 272 279 282 284 282 281 286 291 298 319 330 338 346 356 79 51 325 256 310 339 348 353 358 1 5 14 17 22 42 41 28 35 69 82 144 175 140 148 162 239 315 6 5 184 216 271 280 282 282 282 280 280 277 267 270 269 269 272 257 260 270 256 261 274 272 286 303 319 303 286 279 271 257 254
300 307 316 323 329 338 343 345 344 339 335 329 312 289 279 287 287 286 280 280 286 287 298 316 325 341 351 5 71 59 267 226 315 334 351 352 357 4 16 21 19 27 42 43 38 43 70 151 191 160 133 132 145 188 315 60 116 198 235 269 270 281 287 275 262 280 290 259 187 224 269 279 277 318 274 256 247 339 346 319 320 323 286 284 285 278 265 247
291 301 304 314 323 329 337 341 341 339 333 328 318 298 292 296 293 290 281 281 283 284 298 310 328 344 358 34 92 146 237 160 326 342 351 349 359 15 31 20 14 31 41 47 48 50 64 135 162 134 97 106 156 44 298 206 128 226 279 286 288 301 297 305 296 303 337 302 190 200 265 274 249 181 245 258 281 49 357 317 312 303 280 281 279 283 281 255
279 293 297 307 316 323 333 336 338 337 331 328 323 310 309 304 298 297 282 279 279 283 295 308 332 343 6 45 127 184 209 14 337 354 348 350 6 23 35 16 6 26 37 52 54 53 52 34 111 100 84 147 139 23 154 210 354 292 36 337 310 344 334 337 8 304 355 346 183 182 285 280 196 224 248 264 326 8 342 316 314 309 294 291 280 281 279 271
271 284 293 298 302 312 325 331 334 334 330 330 332 334 330 317 328 316 284 277 277 282 291 308 329 346 30 54 214 188 168 295 339 355 350 356 7 13 20 3 354 16 32 60 55 55 53 6 57 99 132 112 147 288 109 34 8 273 45 44 328 357 338 321 353 320 346 343 194 48 303 282 238 249 266 286 351 349 334 316 311 307 300 298 287 284 276 275
271 282 292 296 294 299 313 324 330 331 333 337 341 348 345 351 7 324 287 276 272 283 291 304 322 353 59 204 239 155 238 266 320 346 353 1 4 3 4 360 5 58 48 67 54 61 53 358 55 87 110 86 246 284 42 12 9 318 350 56 30 360 291 299 325 332 349 337 21 48 255 271 277 275 278 298 12 357 324 303 296 296 296 297 291 287 282 274
264 274 284 291 291 294 303 315 326 331 335 338 342 347 350 14 15 334 299 275 272 281 288 305 318 12 75 297 268 173 261 264 300 345 352 357 5 360 352 8 70 67 39 73 64 77 47 18 63 60 283 357 38 37 24 360 9 20 360 338 356 348 286 311 315 309 334 298 24 88 244 276 278 274 278 298 350 335 312 298 291 292 292 294 291 284 281 278
258 269 280 286 289 291 296 309 321 326 329 332 341 341 345 13 356 325 291 278 280 281 289 307 315 96 94 331 282 186 273 280 321 341 344 348 5 357 347 19 96 31 42 116 108 104 56 51 54 14 277 34 46 44 28 21 358 8 35 319 302 311 315 321 316 336 53 297 329 190 248 284 279 277 288 300 315 315 304 295 291 293 290 289 289 285 283 284
259 272 285 289 288 287 291 305 314 320 324 325 332 328 330 339 315 300 280 277 284 286 291 270 227 84 89 194 88 271 292 316 320 325 332 344 355 349 349 47 70 29 74 93 92 106 47 48 37 319 37 48 42 60 41 14 329 329 21 318 278 283 301 310 302 328 31 13 279 247 243 272 277 285 295 298 306 308 288 284 286 286 287 288 287 289 287 287
255 273 294 295 290 286 288 302 312 317 323 324 328 318 298 303 300 286 264 236 321 320 318 217 111 59 320 251 315 298 300 311 319 319 338 346 345 349 4 46 56 66 71 54 60 56 18 26 51 11 12 17 27 62 59 315 262 276 306 307 298 287 254 271 277 311 13 331 278 279 269 274 279 287 294 294 301 294 274 276 281 279 284 288 291 292 287 290
251 270 298 301 291 285 285 299 314 320 324 324 320 308 303 301 294 279 228 135 116 286 261 249 151 142 281 289 300 320 314 311 329 351 357 347 339 358 32 28 44 100 62 22 360 24 37 27 45 46 338 339 46 98 143 198 198 221 254 255 284 292 272 265 268 284 351 310 280 276 274 280 288 294 296 297 305 290 274 277 278 277 280 281 290 291 288 292
252 267 291 299 290 283 286 299 315 322 327 336 335 335 336 335 339 317 299 149 170 164 247 234 181 28 342 317 319 337 329 319 11 76 1 351 341 29 33 19 22 45 66 62 304 1 75 60 56 191 254 254 211 168 150 162 170 186 226 243 263 281 284 277 270 277 360 328 271 266 283 284 287 291 289 294 310 301 282 281 277 275 277 276 285 286 288 291
251 263 282 293 286 280 284 299 312 319 328 357 10 12 159 152 19 314 309 300 223 149 348 252 180 277 285 277 317 352 54 27 346 27 8 351 352 75 331 31 37 19 15 224 260 352 66 76 211 214 224 217 190 166 128 125 147 162 211 263 282 264 268 279 277 279 29 16 286 293 303 286 284 288 285 290 305 290 273 272 273 273 279 282 281 277 280 287
248 259 277 288 283 276 278 296 306 308 325 21 41 73 134 139 119 72 345 307 271 208 60 315 110 299 292 269 289 22 81 29 314 325 357 349 6 13 339 47 64 348 326 341 11 6 18 211 226 219 184 121 93 112 108 113 163 194 200 246 291 269 275 287 275 156 18 347 297 317 311 287 286 282 278 275 261 261 257 249 252 264 279 282 277 278 288 297
245 255 273 285 281 271 270 290 298 297 281 79 67 98 125 119 110 77 74 231 289 304 106 150 162 274 321 275 238 105 80 66 245 304 348 360 17 43 63 60 61 351 354 15 64 34 343 257 232 202 132 119 86 69 86 73 89 204 207 246 280 292 332 297 288 345 318 276 262 298 288 281 290 287 283 272 244 257 266 253 246 244 249 259 269 283 291 296
242 249 267 282 278 263 269 292 286 260 197 120 97 132 134 122 116 72 59 116 297 295 228 216 179 179 202 174 174 112 100 177 200 303 352 27 85 59 87 106 66 37 7 110 116 141 252 254 155 85 71 127 112 10 81 69 351 257 216 210 248 279 248 246 294 327 323 301 289 313 303 285 286 290 289 282 278 288 285 284 277 261 249 257 277 292 285 281
237 244 260 277 275 253 255 292 252 204 182 145 138 149 135 130 121 77 60 57 317 298 282 227 181 172 164 120 27 201 149 221 215 281 348 43 138 84 44 148 81 355 240 175 123 224 261 269 109 103 45 56 58 336 160 116 357 308 242 202 222 269 266 261 305 331 343 345 350 6 353 303 269 262 274 291 326 306 297 302 282 275 280 281 294 302 294 284
230 236 255 271 267 235 221 275 212 174 172 180 170 159 149 148 134 112 83 49 313 274 198 198 152 135 167 86 343 177 122 305 273 282 12 46 143 137 73 273 352 321 228 197 147 273 253 44 57 126 83 50 46 338 225 135 52 323 267 191 215 261 276 288 312 342 355 296 318 51 47 285 293 286 267 271 299 291 294 295 279 280 290 294 306 306 300 297
224 231 248 264 255 217 205 233 184 169 171 195 174 163 164 167 166 162 78 33 300 225 118 250 340 112 175 308 350 139 223 288 6 11 57 50 339 106 80 277 289 275 232 115 354 288 157 67 22 48 64 47 45 49 210 143 79 287 239 132 282 284 284 289 297 232 240 287 318 34 87 260 294 285 261 273 301 293 292 286 283 286 288 302 314 308 302 297
221 229 241 257 249 223 215 204 183 183 175 168 167 165 165 173 191 137 81 55 282 137 101 267 122 90 114 2 30 96 281 311 98 290 330 56 330 52 46 240 181 228 279 91 293 275 139 125 236 86 49 4 257 201 183 136 92 262 256 310 292 286 282 269 175 194 347 3 318 339 47 296 273 270 273 291 296 294 295 291 292 296 302 314 315 310 310 300
218 224 237 244 239 230 224 216 195 186 171 161 159 166 168 174 194 75 76 172 256 70 73 66 122 60 17 19 11 12 321 338 106 281 335 62 25 55 67 218 145 130 328 57 233 243 125 184 182 138 103 251 238 224 172 145 219 275 306 307 299 27 42 89 120 135 60 38 272 262 37 349 280 277 299 314 299 305 310 304 297 301 316 324 318 314 312 303
214 221 233 228 227 229 223 224 207 176 162 164 158 163 168 149 65 68 78 231 219 50 247 107 168 14 50 64 331 346 350 307 322 327 349 76 27 41 81 141 98 106 338 345 259 247 348 194 161 134 193 218 223 232 171 172 236 320 347 320 338 37 56 68 79 90 71 320 255 212 157 77 300 283 284 291 300 312 319 314 309 314 328 328 320 316 309 303
211 219 223 218 220 217 206 219 208 181 163 163 161 158 157 71 60 106 195 240 211 241 156 109 353 43 74 162 269 332 19 318 327 359 12 4 5 18 50 60 52 53 360 353 307 302 8 52 192 239 202 197 243 325 14 196 236 17 20 5 356 344 7 30 360 38 57 283 251 193 180 150 230 271 282 280 289 309 322 316 315 321 329 326 318 316 309 303
209 217 218 220 224 213 202 207 196 185 169 159 157 129 102 80 87 177 232 293 359 216 175 156 84 76 74 264 277 308 335 321 352 48 59 4 10 7 25 158 88 18 345 327 326 336 7 109 298 320 253 206 192 7 353 347 23 33 24 24 11 341 1 8 341 3 281 270 218 169 205 229 231 258 277 285 299 326 318 302 311 321 327 324 316 315 312 306
206 212 213 222 228 218 213 205 187 183 169 158 148 61 81 133 222 216 229 264 276 255 98 94 95 92 83 300 275 288 271 236 18 52 128 23 27 338 313 218 169 68 298 258 343 357 344 309 333 350 290 248 135 70 360 317 7 27 39 44 43 27 9 334 306 320 286 279 258 176 190 278 282 270 260 271 304 325 310 309 318 322 324 322 316 314 313 308
204 207 212 221 230 226 218 214 201 180 169 157 114 67 111 185 234 231 225 225 243 344 48 85 94 83 80 187 264 274 221 241 29 57 356 15 31 307 262 269 319 86 107 92 28 54 2 302 314 159 261 329 36 103 136 151 59 53 137 118 97 128 111 278 254 267 290 296 295 230 183 221 275 284 279 327 328 316 321 328 332 328 324 323 319 320 320 314
202 204 213 221 228 228 217 219 214 178 172 149 78 119 179 206 227 221 218 215 203 122 69 73 94 90 20 295 291 272 219 254 30 67 6 353 192 204 210 235 216 125 116 93 273 131 137 265 263 263 267 59 11 260 128 104 69 13 125 100 11 185 156 207 221 213 271 312 298 264 230 219 233 279 309 15 342 331 339 341 345 338 329 329 324 324 325 316
195 197 207 216 224 225 215 217 214 186 174 132 112 191 206 211 203 200 200 161 153 154 132 80 87 112 273 294 309 310 236 229 123 54 313 254 217 211 201 217 192 155 142 139 217 144 56 279 283 338 338 29 246 230 135 44 99 76 65 92 265 168 128 133 272 284 34 340 284 289 286 284 298 301 318 359 331 336 348 346 349 340 327 330 329 323 322 315
185 187 199 215 222 220 210 213 208 192 165 120 179 210 213 211 194 181 173 119 130 140 126 144 200 165 198 248 250 257 226 236 287 49 262 272 243 206 189 217 176 167 184 155 172 201 169 279 293 39 72 301 268 141 39 4 89 102 93 224 230 71 87 98 306 336 26 271 273 302 292 299 335 317 317 347 337 341 349 347 349 342 334 337 334 327 321 313
175 176 207 226 223 213 202 205 197 180 131 131 208 220 198 206 192 152 158 137 119 102 123 179 206 175 183 190 219 220 172 213 243 174 211 255 250 184 157 173 96 6 278 139 109 186 131 282 303 304 172 295 335 94 36 348 12 95 154 173 101 58 319 5 21 333 348 309 292 293 285 286 274 274 325 348 343 342 343 348 352 343 337 336 332 328 323 317
162 156 254 230 217 207 190 187 178 147 115 178 207 217 200 213 236 196 185 148 117 114 155 200 182 118 166 165 173 196 181 192 192 175 190 208 242 202 159 170 135 205 297 36 122 198 94 106 289 269 206 302 355 103 205 312 357 40 73 55 72 149 184 217 120 156 159 301 303 307 306 292 242 242 327 345 339 340 339 345 350 340 331 329 329 325 317 318
151 128 303 210 193 187 176 166 149 134 180 200 199 201 208 215 231 237 239 230 132 140 185 192 155 137 168 169 170 174 173 181 169 175 212 213 244 236 190 159 140 159 321 41 107 138 57 109 252 287 319 312 284 220 192 179 168 105 61 19 297 168 107 266 237 141 134 193 288 316 306 290 268 237 154 341 327 335 337 336 338 335 330 325 327 323 313 326
139 143 297 189 169 165 160 153 158 186 199 225 200 189 209 191 160 181 311 336 40 349 172 153 148 157 155 160 195 173 149 169 173 177 221 232 230 221 198 148 150 154 123 76 111 158 116 145 214 291 324 263 251 273 193 174 164 143 155 178 173 139 68 11 302 311 92 162 190 253 291 282 272 231 157 242 315 331 350 339 332 333 333 328 327 326 323 19
143 184 306 166 165 163 157 163 217 164 173 214 199 187 195 157 147 166 194 359 44 30 48 115 129 151 155 155 174 162 146 164 187 189 216 227 211 217 306 113 143 138 118 129 206 196 138 108 131 273 264 239 272 317 355 122 133 118 130 150 128 122 122 121 260 274 331 285 220 133 273 272 263 219 180 236 302 1 33 358 326 330 334 331 332 338 348 52
154 164 68 152 170 171 167 203 230 196 225 244 229 209 170 125 131 156 177 213 188 133 60 151 174 172 187 164 135 163 183 180 180 186 212 227 212 261 305 187 148 127 101 131 203 193 105 87 56 286 289 322 331 328 348 13 77 111 110 133 132 133 136 149 180 196 243 272 239 97 261 272 270 197 183 246 299 14 27 321 312 327 338 338 334 342 359 35
123 122 72 161 186 190 198 208 203 204 219 258 262 227 353 135 166 158 179 201 193 155 143 186 198 179 177 142 122 172 197 192 190 193 191 195 198 2 352 214 174 137 126 176 172 173 210 122 98 343 335 342 347 349 345 344 353 196 214 143 145 126 113 126 148 88 311 231 164 145 247 265 280 290 289 298 325 5 5 316 297 319 336 339 334 338 353 19
122 113 60 157 194 203 219 191 158 192 198 197 218 203 175 230 205 178 184 186 178 163 158 184 186 120 109 113 100 150 184 187 208 190 146 179 234 13 27 337 330 105 206 253 131 138 180 198 142 119 318 285 290 304 303 279 239 237 204 157 163 146 136 151 124 77 282 236 153 167 242 268 294 313 319 321 336 348 346 344 321 311 329 335 335 337 341 20
147 135 145 130 312 242 252 81 109 184 189 183 209 204 191 212 246 276 191 179 171 151 120 114 143 99 92 134 139 170 194 40 50 136 162 184 227 334 358 9 25 137 185 108 62 92 104 241 204 178 196 212 227 247 253 109 240 265 250 199 179 171 143 126 110 158 204 200 189 229 244 277 293 303 317 323 333 337 336 343 338 328 339 341 336 333 333 8
177 160 167 156 122 225 248 265 207 224 190 180 189 201 202 208 203 83 229 208 190 157 96 38 156 148 165 160 152 187 185 92 71 161 174 173 186 321 317 82 71 162 173 109 59 84 97 270 240 197 224 240 246 259 304 28 271 250 249 227 186 169 145 146 185 201 165 109 276 251 236 281 287 296 311 312 319 327 324 330 328 322 336 338 330 330 338 353
186 169 186 170 154 191 211 217 200 205 225 203 192 176 200 205 193 179 190 51 208 192 171 214 211 192 181 164 159 171 152 127 221 201 168 144 155 95 19 61 36 315 133 86 19 94 118 238 233 188 253 269 268 274 278 263 262 252 246 242 209 176 173 191 214 202 160 200 251 260 307 292 284 293 299 295 302 313 309 312 314 306 310 324 331 337 342 344
153 44 221 194 190 188 190 177 168 190 218 219 209 207 203 202 197 190 139 107 211 234 204 207 212 197 188 174 160 152 160 183 214 209 183 149 156 155 116 222 248 6 87 108 40 121 146 222 219 151 287 285 275 283 282 239 261 270 253 244 224 199 197 207 226 208 187 234 256 272 292 287 279 276 277 281 290 292 293 304 312 308 311 321 329 332 333 331
165 166 165 158 234 179 170 147 152 184 214 220 225 225 210 196 195 187 135 163 189 206 201 210 204 183 186 184 166 180 200 193 183 181 171 152 162 190 186 190 174 98 94 140 133 302 197 226 139 95 317 292 288 331 23 208 233 256 264 254 225 207 212 221 239 217 201 250 265 270 280 280 272 259 258 270 282 287 300 316 322 317 324 332 327 324 325 323
168 156 152 151 191 174 158 152 154 175 202 208 219 217 201 197 192 183 196 210 200 180 185 197 186 152 172 184 189 217 215 185 165 176 171 165 174 190 193 179 153 143 159 164 133 137 165 206 73 80 337 282 297 23 332 293 259 259 273 265 220 190 196 210 217 194 188 216 245 239 258 262 257 257 266 267 278 311 320 322 325 322 330 347 336 322 317 310
159 140 155 168 185 167 160 163 161 176 204 210 212 207 198 203 186 177 205 235 212 190 187 186 168 133 157 194 207 221 198 138 124 154 151 137 114 108 125 141 138 144 162 158 129 146 154 152 154 127 196 268 285 314 301 315 313 275 265 244 193 179 189 210 226 212 198 177 143 182 227 238 245 307 314 295 311 336 326 315 315 312 320 339 333 318 311 304